Time,TemperatureF,DewpointF,PressureIn,WindDirection,WindDirectionDegrees,WindSpeedMPH,WindSpeedGustMPH,Humidity,HourlyPrecipIn,Conditions,Clouds,dailyrainin,SoftwareType,DateUTC
2013-01-23 00:01:00,7.7,-1.3,30.30,NW,315,0.7,0.9,66,0.00,,,0.00,WUHU216HW,2013-01-23 05:01:00,
2013-01-23 00:03:00,7.9,-1.2,30.30,NW,315,0.0,0.7,66,0.00,,,0.00,WUHU216HW,2013-01-23 05:03:00,
2013-01-23 00:08:00,7.7,-1.6,30.30,NW,315,0.7,0.9,65,0.00,,,0.00,WUHU216HW,2013-01-23 05:08:00,
2013-01-23 00:13:00,7.6,-1.5,30.30,NW,315,0.0,1.6,66,0.00,,,0.00,WUHU216HW,2013-01-23 05:13:00,
2013-01-23 00:18:00,7.6,-1.5,30.30,West,270,0.7,1.6,66,0.00,,,0.00,WUHU216HW,2013-01-23 05:18:00,
2013-01-23 00:23:00,7.6,-1.5,30.30,West,270,0.2,0.9,66,0.00,,,0.00,WUHU216HW,2013-01-23 05:23:00,
2013-01-23 00:28:00,7.7,-1.3,30.30,WNW,293,0.2,0.7,66,0.00,,,0.00,WUHU216HW,2013-01-23 05:28:00,
2013-01-23 00:33:00,7.7,-1.3,30.30,NW,315,0.4,0.4,66,0.00,,,0.00,WUHU216HW,2013-01-23 05:33:00,
2013-01-23 00:38:00,7.7,-1.3,30.30,NW,315,0.7,0.7,66,0.00,,,0.00,WUHU216HW,2013-01-23 05:38:00,
2013-01-23 00:43:00,7.7,-1.3,30.30,WNW,293,0.0,0.7,66,0.00,,,0.00,WUHU216HW,2013-01-23 05:43:00,
2013-01-23 00:48:00,7.7,-1.3,30.30,NW,315,0.0,1.1,66,0.00,,,0.00,WUHU216HW,2013-01-23 05:48:00,
2013-01-23 00:53:00,7.7,-1.3,30.29,WNW,293,0.9,1.1,66,0.00,,,0.00,WUHU216HW,2013-01-23 05:53:00,
2013-01-23 00:58:00,7.6,-1.5,30.29,NW,315,0.0,1.1,66,0.00,,,0.00,WUHU216HW,2013-01-23 05:58:00,
2013-01-23 01:03:00,7.7,-1.3,30.29,West,270,0.0,0.7,66,0.00,,,0.00,WUHU216HW,2013-01-23 06:03:00,
2013-01-23 01:08:00,7.7,-1.0,30.29,NW,315,0.0,0.7,67,0.00,,,0.00,WUHU216HW,2013-01-23 06:08:00,
2013-01-23 01:13:00,7.6,-1.5,30.29,SW,225,0.0,0.7,66,0.00,,,0.00,WUHU216HW,2013-01-23 06:13:00,
2013-01-23 01:18:00,7.6,-1.5,30.29,WNW,293,0.2,0.7,66,0.00,,,0.00,WUHU216HW,2013-01-23 06:18:00,
2013-01-23 01:23:00,7.6,-1.2,30.29,NW,315,0.7,0.7,67,0.00,,,0.00,WUHU216HW,2013-01-23 06:23:00,
2013-01-23 01:28:00,7.6,-1.2,30.30,NW,315,0.0,0.7,67,0.00,,,0.00,WUHU216HW,2013-01-23 06:28:00,
2013-01-23 01:33:00,7.6,-1.2,30.29,WNW,293,0.0,0.7,67,0.00,,,0.00,WUHU216HW,2013-01-23 06:33:00,
2013-01-23 01:38:00,7.6,-1.2,30.29,NW,315,0.4,0.7,67,0.00,,,0.00,WUHU216HW,2013-01-23 06:38:00,
2013-01-23 01:43:00,7.6,-1.2,30.29,NNW,338,0.7,0.7,67,0.00,,,0.00,WUHU216HW,2013-01-23 06:43:00,
2013-01-23 01:48:00,7.6,-1.2,30.29,WNW,293,0.0,1.1,67,0.00,,,0.00,WUHU216HW,2013-01-23 06:48:00,
2013-01-23 01:53:00,7.6,-1.2,30.29,NW,315,0.2,1.1,67,0.00,,,0.00,WUHU216HW,2013-01-23 06:53:00,
2013-01-23 01:58:00,7.6,-1.2,30.29,NW,315,0.2,0.7,67,0.00,,,0.00,WUHU216HW,2013-01-23 06:58:00,
2013-01-23 02:03:00,7.6,-1.2,30.29,NW,315,0.0,0.4,67,0.00,,,0.00,WUHU216HW,2013-01-23 07:03:00,
2013-01-23 02:08:00,7.4,-1.3,30.29,NNW,338,0.0,0.4,67,0.00,,,0.00,WUHU216HW,2013-01-23 07:08:00,
2013-01-23 02:13:00,7.6,-1.2,30.29,WNW,293,0.0,0.4,67,0.00,,,0.00,WUHU216HW,2013-01-23 07:13:00,
2013-01-23 02:18:00,7.6,-1.2,30.29,WSW,248,0.4,0.4,67,0.00,,,0.00,WUHU216HW,2013-01-23 07:18:00,
2013-01-23 02:23:00,7.4,-1.3,30.29,SW,225,0.0,0.4,67,0.00,,,0.00,WUHU216HW,2013-01-23 07:23:00,
2013-01-23 02:28:00,7.4,-1.3,30.29,WNW,293,0.0,0.4,67,0.00,,,0.00,WUHU216HW,2013-01-23 07:28:00,
2013-01-23 02:33:00,7.2,-1.5,30.30,NW,315,0.2,0.4,67,0.00,,,0.00,WUHU216HW,2013-01-23 07:33:00,
2013-01-23 02:38:00,7.4,-1.0,30.30,NW,315,0.0,0.4,68,0.00,,,0.00,WUHU216HW,2013-01-23 07:38:00,
2013-01-23 02:43:00,7.6,-0.8,30.29,NW,315,0.0,0.2,68,0.00,,,0.00,WUHU216HW,2013-01-23 07:43:00,
2013-01-23 02:48:00,7.6,-0.8,30.29,NW,315,0.0,0.0,68,0.00,,,0.00,WUHU216HW,2013-01-23 07:48:00,
2013-01-23 02:53:00,7.6,-0.8,30.29,NW,315,0.0,0.2,68,0.00,,,0.00,WUHU216HW,2013-01-23 07:53:00,
2013-01-23 02:58:00,7.4,-1.0,30.29,WNW,293,0.0,0.2,68,0.00,,,0.00,WUHU216HW,2013-01-23 07:58:00,
2013-01-23 03:03:00,7.4,-1.0,30.30,NNW,338,0.2,0.2,68,0.00,,,0.00,WUHU216HW,2013-01-23 08:03:00,
2013-01-23 03:08:00,7.4,-1.0,30.30,NW,315,0.7,0.7,68,0.00,,,0.00,WUHU216HW,2013-01-23 08:08:00,
2013-01-23 03:13:00,7.4,-1.0,30.30,WNW,293,0.0,0.7,68,0.00,,,0.00,WUHU216HW,2013-01-23 08:13:00,
2013-01-23 03:18:00,7.4,-1.0,30.30,NW,315,0.4,0.7,68,0.00,,,0.00,WUHU216HW,2013-01-23 08:18:00,
2013-01-23 03:23:00,7.4,-1.0,30.30,WNW,293,0.0,0.4,68,0.00,,,0.00,WUHU216HW,2013-01-23 08:23:00,
2013-01-23 03:28:00,7.2,-1.2,30.30,NNW,338,0.0,0.4,68,0.00,,,0.00,WUHU216HW,2013-01-23 08:28:00,
2013-01-23 03:33:00,7.4,-1.0,30.29,WNW,293,0.2,0.4,68,0.00,,,0.00,WUHU216HW,2013-01-23 08:33:00,
2013-01-23 03:38:00,7.4,-1.0,30.29,NW,315,0.0,0.4,68,0.00,,,0.00,WUHU216HW,2013-01-23 08:38:00,
2013-01-23 03:43:00,7.4,-1.0,30.29,WNW,293,0.2,0.4,68,0.00,,,0.00,WUHU216HW,2013-01-23 08:43:00,
2013-01-23 03:48:00,7.4,-1.0,30.29,NW,315,0.0,0.4,68,0.00,,,0.00,WUHU216HW,2013-01-23 08:48:00,
2013-01-23 03:53:00,7.2,-1.2,30.29,WNW,293,0.0,0.7,68,0.00,,,0.00,WUHU216HW,2013-01-23 08:53:00,
2013-01-23 03:58:00,7.0,-1.3,30.29,WNW,293,0.0,0.7,68,0.00,,,0.00,WUHU216HW,2013-01-23 08:58:00,
2013-01-23 04:03:00,7.0,-1.3,30.29,WNW,293,0.0,0.4,68,0.00,,,0.00,WUHU216HW,2013-01-23 09:03:00,
2013-01-23 04:08:00,7.0,-1.3,30.29,WSW,248,0.4,0.4,68,0.00,,,0.00,WUHU216HW,2013-01-23 09:08:00,
2013-01-23 04:13:00,7.0,-1.3,30.29,West,270,0.0,0.4,68,0.00,,,0.00,WUHU216HW,2013-01-23 09:13:00,
2013-01-23 04:18:00,7.0,-1.3,30.29,NW,315,0.2,0.7,68,0.00,,,0.00,WUHU216HW,2013-01-23 09:18:00,
2013-01-23 04:23:00,7.0,-1.3,30.29,NNW,338,0.0,0.7,68,0.00,,,0.00,WUHU216HW,2013-01-23 09:23:00,
2013-01-23 04:28:00,7.2,-1.2,30.29,NW,315,0.2,0.4,68,0.00,,,0.00,WUHU216HW,2013-01-23 09:28:00,
2013-01-23 04:33:00,7.4,-1.0,30.29,WNW,293,0.0,0.2,68,0.00,,,0.00,WUHU216HW,2013-01-23 09:33:00,
2013-01-23 04:38:00,7.2,-1.2,30.29,NW,315,0.0,0.2,68,0.00,,,0.00,WUHU216HW,2013-01-23 09:38:00,
2013-01-23 04:43:00,7.2,-1.2,30.29,NW,315,0.0,0.2,68,0.00,,,0.00,WUHU216HW,2013-01-23 09:43:00,
2013-01-23 04:48:00,7.4,-1.0,30.29,NW,315,0.0,0.2,68,0.00,,,0.00,WUHU216HW,2013-01-23 09:48:00,
2013-01-23 04:53:00,7.4,-1.0,30.29,NW,315,0.0,0.2,68,0.00,,,0.00,WUHU216HW,2013-01-23 09:53:00,
2013-01-23 04:58:00,7.2,-1.2,30.29,NW,315,0.0,0.0,68,0.00,,,0.00,WUHU216HW,2013-01-23 09:58:00,
2013-01-23 05:03:00,6.8,-1.5,30.29,WNW,293,0.0,0.0,68,0.00,,,0.00,WUHU216HW,2013-01-23 10:03:00,
2013-01-23 05:08:00,6.8,-1.5,30.29,WNW,293,0.0,0.0,68,0.00,,,0.00,WUHU216HW,2013-01-23 10:08:00,
2013-01-23 05:13:00,6.8,-1.5,30.29,WNW,293,0.0,0.0,68,0.00,,,0.00,WUHU216HW,2013-01-23 10:13:00,
2013-01-23 05:18:00,6.8,-1.5,30.29,WNW,293,0.2,0.4,68,0.00,,,0.00,WUHU216HW,2013-01-23 10:18:00,
2013-01-23 05:23:00,6.8,-1.5,30.29,NW,315,0.0,0.4,68,0.00,,,0.00,WUHU216HW,2013-01-23 10:23:00,
2013-01-23 05:28:00,6.8,-1.5,30.29,NW,315,0.0,0.2,68,0.00,,,0.00,WUHU216HW,2013-01-23 10:28:00,
2013-01-23 05:33:00,6.8,-1.5,30.29,WNW,293,0.0,0.4,68,0.00,,,0.00,WUHU216HW,2013-01-23 10:33:00,
2013-01-23 05:38:00,6.8,-1.5,30.29,WNW,293,0.0,0.4,68,0.00,,,0.00,WUHU216HW,2013-01-23 10:38:00,
2013-01-23 05:43:00,6.8,-1.5,30.29,WNW,293,0.0,0.2,68,0.00,,,0.00,WUHU216HW,2013-01-23 10:43:00,
2013-01-23 05:48:00,6.8,-1.5,30.29,WNW,293,0.0,0.0,68,0.00,,,0.00,WUHU216HW,2013-01-23 10:48:00,
2013-01-23 05:53:00,6.7,-1.7,30.29,WNW,293,0.0,0.0,68,0.00,,,0.00,WUHU216HW,2013-01-23 10:53:00,
2013-01-23 05:58:00,6.8,-1.5,30.29,WNW,293,0.0,0.0,68,0.00,,,0.00,WUHU216HW,2013-01-23 10:58:00,
2013-01-23 06:03:00,6.7,-1.7,30.29,WNW,293,0.0,0.0,68,0.00,,,0.00,WUHU216HW,2013-01-23 11:03:00,
2013-01-23 06:08:00,6.5,-1.9,30.29,WNW,293,0.0,0.0,68,0.00,,,0.00,WUHU216HW,2013-01-23 11:08:00,
2013-01-23 06:13:00,6.5,-1.9,30.29,WNW,293,0.0,0.0,68,0.00,,,0.00,WUHU216HW,2013-01-23 11:13:00,
2013-01-23 06:18:00,6.3,-2.1,30.29,WNW,293,0.0,0.0,68,0.00,,,0.00,WUHU216HW,2013-01-23 11:18:00,
2013-01-23 06:23:00,6.3,-2.1,30.29,WNW,293,0.0,0.0,68,0.00,,,0.00,WUHU216HW,2013-01-23 11:23:00,
2013-01-23 06:28:00,6.3,-1.8,30.29,West,270,0.0,0.0,69,0.00,,,0.00,WUHU216HW,2013-01-23 11:28:00,
2013-01-23 06:33:00,6.3,-1.8,30.29,West,270,0.0,0.0,69,0.00,,,0.00,WUHU216HW,2013-01-23 11:33:00,
2013-01-23 06:38:00,6.3,-1.8,30.29,West,270,0.0,0.0,69,0.00,,,0.00,WUHU216HW,2013-01-23 11:38:00,
2013-01-23 06:43:00,6.3,-1.8,30.29,West,270,0.0,0.0,69,0.00,,,0.00,WUHU216HW,2013-01-23 11:43:00,
2013-01-23 06:48:00,6.3,-1.8,30.29,West,270,0.0,0.0,69,0.00,,,0.00,WUHU216HW,2013-01-23 11:48:00,
2013-01-23 06:53:00,6.3,-1.8,30.29,West,270,0.0,0.2,69,0.00,,,0.00,WUHU216HW,2013-01-23 11:53:00,
2013-01-23 06:58:00,6.3,-1.8,30.29,West,270,0.0,0.2,69,0.00,,,0.00,WUHU216HW,2013-01-23 11:58:00,
2013-01-23 07:03:00,6.1,-2.0,30.29,WNW,293,0.0,0.2,69,0.00,,,0.00,WUHU216HW,2013-01-23 12:03:00,
2013-01-23 07:08:00,5.9,-2.4,30.29,West,270,0.0,0.2,68,0.00,,,0.00,WUHU216HW,2013-01-23 12:08:00,
2013-01-23 07:13:00,5.9,-2.4,30.29,WNW,293,0.0,0.2,68,0.00,,,0.00,WUHU216HW,2013-01-23 12:13:00,
2013-01-23 07:18:00,5.9,-2.4,30.29,WSW,248,0.2,0.2,68,0.00,,,0.00,WUHU216HW,2013-01-23 12:18:00,
2013-01-23 07:23:00,5.8,-2.6,30.29,West,270,0.0,0.4,68,0.00,,,0.00,WUHU216HW,2013-01-23 12:23:00,
2013-01-23 07:28:00,5.8,-2.6,30.28,WNW,293,0.2,0.4,68,0.00,,,0.00,WUHU216HW,2013-01-23 12:28:00,
2013-01-23 07:33:00,5.8,-2.6,30.28,WNW,293,0.0,0.2,68,0.00,,,0.00,WUHU216HW,2013-01-23 12:33:00,
2013-01-23 07:38:00,5.8,-2.3,30.29,WNW,293,0.0,0.0,69,0.00,,,0.00,WUHU216HW,2013-01-23 12:38:00,
2013-01-23 07:43:00,5.9,-2.2,30.29,WNW,293,0.0,0.0,69,0.00,,,0.00,WUHU216HW,2013-01-23 12:43:00,
2013-01-23 07:48:00,5.9,-2.2,30.29,West,270,0.0,0.2,69,0.00,,,0.00,WUHU216HW,2013-01-23 12:48:00,
2013-01-23 07:53:00,6.1,-1.6,30.29,West,270,0.2,0.4,70,0.00,,,0.00,WUHU216HW,2013-01-23 12:53:00,
2013-01-23 07:58:00,5.9,-2.2,30.29,West,270,0.0,0.4,69,0.00,,,0.00,WUHU216HW,2013-01-23 12:58:00,
2013-01-23 08:03:00,5.9,-2.2,30.29,NW,315,0.0,0.2,69,0.00,,,0.00,WUHU216HW,2013-01-23 13:03:00,
2013-01-23 08:08:00,5.9,-2.2,30.29,West,270,0.0,0.2,69,0.00,,,0.00,WUHU216HW,2013-01-23 13:08:00,
2013-01-23 08:13:00,5.9,-2.2,30.29,WNW,293,0.0,0.2,69,0.00,,,0.00,WUHU216HW,2013-01-23 13:13:00,
2013-01-23 08:18:00,5.9,-2.2,30.29,WNW,293,0.0,0.0,69,0.00,,,0.00,WUHU216HW,2013-01-23 13:18:00,
2013-01-23 08:23:00,5.9,-1.8,30.28,West,270,0.0,0.0,70,0.00,,,0.00,WUHU216HW,2013-01-23 13:23:00,
2013-01-23 08:28:00,6.1,-1.6,30.29,WNW,293,0.0,0.0,70,0.00,,,0.00,WUHU216HW,2013-01-23 13:28:00,
2013-01-23 08:33:00,6.1,-1.6,30.29,West,270,0.0,0.0,70,0.00,,,0.00,WUHU216HW,2013-01-23 13:33:00,
2013-01-23 08:38:00,6.1,-1.6,30.28,WNW,293,0.0,0.4,70,0.00,,,0.00,WUHU216HW,2013-01-23 13:38:00,
2013-01-23 08:43:00,6.1,-1.6,30.28,West,270,0.0,0.4,70,0.00,,,0.00,WUHU216HW,2013-01-23 13:43:00,
2013-01-23 08:48:00,6.3,-1.4,30.28,North,0,0.4,0.4,70,0.00,,,0.00,WUHU216HW,2013-01-23 13:48:00,
2013-01-23 08:53:00,6.5,-1.3,30.28,SSE,158,0.2,0.4,70,0.00,,,0.00,WUHU216HW,2013-01-23 13:53:00,
2013-01-23 08:58:00,6.7,-1.1,30.28,SSE,158,0.4,0.4,70,0.00,,,0.00,WUHU216HW,2013-01-23 13:58:00,
2013-01-23 09:03:00,6.8,-0.9,30.28,South,180,0.2,0.4,70,0.00,,,0.00,WUHU216HW,2013-01-23 14:03:00,
2013-01-23 09:08:00,7.0,-0.7,30.28,WNW,293,0.0,0.4,70,0.00,,,0.00,WUHU216HW,2013-01-23 14:08:00,
2013-01-23 09:13:00,7.4,-0.4,30.28,SW,225,0.0,0.2,70,0.00,,,0.00,WUHU216HW,2013-01-23 14:13:00,
2013-01-23 09:18:00,7.6,-0.2,30.28,SW,225,0.0,0.2,70,0.00,,,0.00,WUHU216HW,2013-01-23 14:18:00,
2013-01-23 09:23:00,7.7,0.0,30.28,SSE,158,0.0,0.7,70,0.00,,,0.00,WUHU216HW,2013-01-23 14:23:00,
2013-01-23 09:28:00,7.9,0.2,30.28,SSE,158,0.0,0.7,70,0.00,,,0.00,WUHU216HW,2013-01-23 14:28:00,
2013-01-23 09:33:00,8.3,0.2,30.28,WSW,248,0.0,0.4,69,0.00,,,0.00,WUHU216HW,2013-01-23 14:33:00,
2013-01-23 09:38:00,8.5,0.4,30.27,SSW,203,0.0,0.2,69,0.00,,,0.00,WUHU216HW,2013-01-23 14:38:00,
2013-01-23 09:43:00,8.6,0.5,30.27,SSW,203,0.0,0.4,69,0.00,,,0.00,WUHU216HW,2013-01-23 14:43:00,
2013-01-23 09:48:00,9.0,0.9,30.27,SW,225,0.0,0.4,69,0.00,,,0.00,WUHU216HW,2013-01-23 14:48:00,
2013-01-23 09:53:00,9.2,0.7,30.27,SSE,158,0.4,0.9,68,0.00,,,0.00,WUHU216HW,2013-01-23 14:53:00,
2013-01-23 09:58:00,9.4,0.9,30.27,East,90,0.7,0.9,68,0.00,,,0.00,WUHU216HW,2013-01-23 14:58:00,
2013-01-23 10:03:00,9.5,1.1,30.27,WSW,248,0.0,0.7,68,0.00,,,0.00,WUHU216HW,2013-01-23 15:03:00,
2013-01-23 10:08:00,9.7,1.2,30.27,West,270,0.4,0.7,68,0.00,,,0.00,WUHU216HW,2013-01-23 15:08:00,
2013-01-23 10:13:00,9.7,1.2,30.27,SSW,203,0.2,0.9,68,0.00,,,0.00,WUHU216HW,2013-01-23 15:13:00,
2013-01-23 10:18:00,10.4,1.9,30.27,WSW,248,0.2,0.9,68,0.00,,,0.00,WUHU216HW,2013-01-23 15:18:00,
2013-01-23 10:23:00,10.6,2.1,30.27,SW,225,1.1,1.1,68,0.00,,,0.00,WUHU216HW,2013-01-23 15:23:00,
2013-01-23 10:28:00,11.0,2.4,30.27,SSW,203,0.9,1.1,68,0.00,,,0.00,WUHU216HW,2013-01-23 15:28:00,
2013-01-23 10:33:00,11.5,3.0,30.27,SW,225,2.2,3.1,68,0.00,,,0.00,WUHU216HW,2013-01-23 15:33:00,
2013-01-23 10:38:00,11.9,3.0,30.27,WSW,248,0.9,3.1,67,0.00,,,0.00,WUHU216HW,2013-01-23 15:38:00,
2013-01-23 10:43:00,12.1,3.2,30.27,SW,225,2.5,2.5,67,0.00,,,0.00,WUHU216HW,2013-01-23 15:43:00,
2013-01-23 10:48:00,12.6,4.0,30.27,SW,225,0.4,2.5,68,0.00,,,0.00,WUHU216HW,2013-01-23 15:48:00,
2013-01-23 10:53:00,13.1,4.5,30.27,South,180,0.9,2.5,68,0.00,,,0.00,WUHU216HW,2013-01-23 15:53:00,
2013-01-23 10:58:00,13.5,4.6,30.27,WNW,293,0.4,1.8,67,0.00,,,0.00,WUHU216HW,2013-01-23 15:58:00,
2013-01-23 11:03:00,13.5,4.2,30.27,WNW,293,1.1,1.8,66,0.00,,,0.00,WUHU216HW,2013-01-23 16:03:00,
2013-01-23 11:08:00,13.5,4.6,30.27,WNW,293,1.1,1.6,67,0.00,,,0.00,WUHU216HW,2013-01-23 16:08:00,
2013-01-23 11:13:00,13.5,4.2,30.26,SSW,203,0.7,1.8,66,0.00,,,0.00,WUHU216HW,2013-01-23 16:13:00,
2013-01-23 11:18:00,13.7,4.4,30.26,WNW,293,0.4,1.8,66,0.00,,,0.00,WUHU216HW,2013-01-23 16:18:00,
2013-01-23 11:23:00,14.0,4.8,30.26,NW,315,1.8,1.8,66,0.00,,,0.00,WUHU216HW,2013-01-23 16:23:00,
2013-01-23 11:28:00,14.2,5.0,30.26,NW,315,0.2,1.8,66,0.00,,,0.00,WUHU216HW,2013-01-23 16:28:00,
2013-01-23 11:33:00,14.4,5.0,30.25,West,270,0.7,1.8,66,0.00,,,0.00,WUHU216HW,2013-01-23 16:33:00,
2013-01-23 11:38:00,14.4,5.0,30.25,West,270,0.4,2.0,66,0.00,,,0.00,WUHU216HW,2013-01-23 16:38:00,
2013-01-23 11:43:00,14.4,5.0,30.25,WSW,248,1.1,2.2,66,0.00,,,0.00,WUHU216HW,2013-01-23 16:43:00,
2013-01-23 11:48:00,14.2,5.0,30.24,SW,225,0.2,2.2,66,0.00,,,0.00,WUHU216HW,2013-01-23 16:48:00,
2013-01-23 11:53:00,14.2,5.0,30.24,WNW,293,0.4,2.5,66,0.00,,,0.00,WUHU216HW,2013-01-23 16:53:00,
2013-01-23 11:58:00,14.6,5.2,30.24,NW,315,0.4,2.5,66,0.00,,,0.00,WUHU216HW,2013-01-23 16:58:00,
2013-01-23 12:03:00,14.8,5.4,30.23,WNW,293,0.4,1.1,66,0.00,,,0.00,WUHU216HW,2013-01-23 17:03:00,
2013-01-23 12:08:00,15.1,5.8,30.23,WNW,293,0.9,1.3,66,0.00,,,0.00,WUHU216HW,2013-01-23 17:08:00,
2013-01-23 12:13:00,15.3,5.9,30.22,West,270,1.3,1.3,66,0.00,,,0.00,WUHU216HW,2013-01-23 17:13:00,
2013-01-23 12:18:00,15.5,6.0,30.22,SW,225,0.4,1.3,66,0.00,,,0.00,WUHU216HW,2013-01-23 17:18:00,
2013-01-23 12:23:00,15.7,6.2,30.22,SE,135,2.0,2.0,66,0.00,,,0.00,WUHU216HW,2013-01-23 17:23:00,
2013-01-23 12:28:00,16.0,6.6,30.21,SW,225,0.9,2.0,66,0.00,,,0.00,WUHU216HW,2013-01-23 17:28:00,
2013-01-23 12:33:00,16.4,6.9,30.21,West,270,0.0,1.8,66,0.00,,,0.00,WUHU216HW,2013-01-23 17:33:00,
2013-01-23 12:38:00,16.9,7.1,30.21,SW,225,1.1,1.8,65,0.00,,,0.00,WUHU216HW,2013-01-23 17:38:00,
2013-01-23 12:43:00,16.9,7.1,30.20,NW,315,1.3,2.5,65,0.00,,,0.00,WUHU216HW,2013-01-23 17:43:00,
2013-01-23 12:48:00,16.9,7.1,30.20,SSW,203,1.1,2.5,65,0.00,,,0.00,WUHU216HW,2013-01-23 17:48:00,
2013-01-23 12:53:00,17.1,7.3,30.19,West,270,0.7,2.9,65,0.00,,,0.00,WUHU216HW,2013-01-23 17:53:00,
2013-01-23 12:58:00,17.3,7.1,30.19,WNW,293,1.1,2.9,64,0.00,,,0.00,WUHU216HW,2013-01-23 17:58:00,
2013-01-23 13:03:00,17.5,7.3,30.19,West,270,0.4,3.4,64,0.00,,,0.00,WUHU216HW,2013-01-23 18:03:00,
2013-01-23 13:08:00,17.5,6.9,30.18,West,270,1.8,3.4,63,0.00,,,0.00,WUHU216HW,2013-01-23 18:08:00,
2013-01-23 13:13:00,17.6,7.5,30.18,SSW,203,1.1,2.5,64,0.00,,,0.00,WUHU216HW,2013-01-23 18:13:00,
2013-01-23 13:18:00,17.8,7.7,30.18,WSW,248,0.7,2.5,64,0.00,,,0.00,WUHU216HW,2013-01-23 18:18:00,
2013-01-23 13:23:00,18.0,7.5,30.18,East,90,0.2,3.1,63,0.00,,,0.00,WUHU216HW,2013-01-23 18:23:00,
2013-01-23 13:28:00,18.4,7.8,30.17,NW,315,1.1,3.1,63,0.00,,,0.00,WUHU216HW,2013-01-23 18:28:00,
2013-01-23 13:33:00,18.5,7.7,30.18,West,270,2.2,2.5,62,0.00,,,0.00,WUHU216HW,2013-01-23 18:33:00,
2013-01-23 13:38:00,18.2,6.9,30.17,West,270,2.0,2.5,61,0.00,,,0.00,WUHU216HW,2013-01-23 18:38:00,
2013-01-23 13:43:00,18.2,7.3,30.17,NNW,338,1.1,2.5,62,0.00,,,0.00,WUHU216HW,2013-01-23 18:43:00,
2013-01-23 13:48:00,18.5,7.7,30.17,WSW,248,0.0,2.2,62,0.00,,,0.00,WUHU216HW,2013-01-23 18:48:00,
2013-01-23 13:53:00,18.7,7.7,30.16,NNW,338,1.1,2.5,62,0.00,,,0.00,WUHU216HW,2013-01-23 18:53:00,
2013-01-23 13:58:00,18.7,7.5,30.16,WNW,293,2.7,3.1,61,0.00,,,0.00,WUHU216HW,2013-01-23 18:58:00,
2013-01-23 14:03:00,18.7,7.7,30.16,WSW,248,1.1,3.1,62,0.00,,,0.00,WUHU216HW,2013-01-23 19:03:00,
2013-01-23 14:08:00,18.7,7.5,30.16,NW,315,2.2,2.7,61,0.00,,,0.00,WUHU216HW,2013-01-23 19:08:00,
2013-01-23 14:13:00,18.7,7.1,30.15,WSW,248,2.5,2.5,60,0.00,,,0.00,WUHU216HW,2013-01-23 19:13:00,
2013-01-23 14:18:00,18.7,7.5,30.15,WNW,293,0.9,3.4,61,0.00,,,0.00,WUHU216HW,2013-01-23 19:18:00,
2013-01-23 14:23:00,18.9,7.6,30.15,NW,315,1.8,3.4,61,0.00,,,0.00,WUHU216HW,2013-01-23 19:23:00,
2013-01-23 14:28:00,18.9,7.6,30.15,NW,315,0.7,2.7,61,0.00,,,0.00,WUHU216HW,2013-01-23 19:28:00,
2013-01-23 14:33:00,18.9,7.6,30.15,NW,315,0.7,2.7,61,0.00,,,0.00,WUHU216HW,2013-01-23 19:33:00,
2013-01-23 14:38:00,19.1,7.7,30.14,WSW,248,0.7,2.5,61,0.00,,,0.00,WUHU216HW,2013-01-23 19:38:00,
2013-01-23 14:43:00,19.3,7.6,30.14,WSW,248,1.1,2.5,60,0.00,,,0.00,WUHU216HW,2013-01-23 19:43:00,
2013-01-23 14:48:00,19.3,7.9,30.14,SW,225,1.1,2.9,61,0.00,,,0.00,WUHU216HW,2013-01-23 19:48:00,
2013-01-23 14:53:00,19.4,7.7,30.14,WNW,293,2.9,2.9,60,0.00,,,0.00,WUHU216HW,2013-01-23 19:53:00,
2013-01-23 14:58:00,19.3,7.6,30.14,NW,315,0.4,2.9,60,0.00,,,0.00,WUHU216HW,2013-01-23 19:58:00,
2013-01-23 15:03:00,19.3,7.6,30.14,NW,315,0.0,2.9,60,0.00,,,0.00,WUHU216HW,2013-01-23 20:03:00,
2013-01-23 15:08:00,19.6,7.9,30.14,West,270,2.2,2.2,60,0.00,,,0.00,WUHU216HW,2013-01-23 20:08:00,
2013-01-23 15:13:00,19.1,7.0,30.14,NW,315,0.7,2.5,59,0.00,,,0.00,WUHU216HW,2013-01-23 20:13:00,
2013-01-23 15:18:00,19.1,7.0,30.14,WSW,248,1.8,2.5,59,0.00,,,0.00,WUHU216HW,2013-01-23 20:18:00,
2013-01-23 15:23:00,19.1,7.0,30.13,NW,315,1.1,2.7,59,0.00,,,0.00,WUHU216HW,2013-01-23 20:23:00,
2013-01-23 15:28:00,19.1,7.0,30.13,NW,315,1.3,2.7,59,0.00,,,0.00,WUHU216HW,2013-01-23 20:28:00,
2013-01-23 15:33:00,19.1,7.0,30.13,SW,225,1.1,3.1,59,0.00,,,0.00,WUHU216HW,2013-01-23 20:33:00,
2013-01-23 15:38:00,19.1,7.0,30.13,SW,225,0.4,3.1,59,0.00,,,0.00,WUHU216HW,2013-01-23 20:38:00,
2013-01-23 15:43:00,19.1,7.0,30.13,NW,315,0.9,1.1,59,0.00,,,0.00,WUHU216HW,2013-01-23 20:43:00,
2013-01-23 15:48:00,19.1,7.4,30.12,East,90,1.1,1.8,60,0.00,,,0.00,WUHU216HW,2013-01-23 20:48:00,
2013-01-23 15:53:00,18.9,6.8,30.13,NW,315,0.7,2.7,59,0.00,,,0.00,WUHU216HW,2013-01-23 20:53:00,
2013-01-23 15:58:00,18.7,6.7,30.13,West,270,0.9,2.7,59,0.00,,,0.00,WUHU216HW,2013-01-23 20:58:00,
2013-01-23 16:03:00,18.5,6.9,30.12,WSW,248,1.1,2.0,60,0.00,,,0.00,WUHU216HW,2013-01-23 21:03:00,
2013-01-23 16:08:00,18.7,7.1,30.12,West,270,0.4,3.4,60,0.00,,,0.00,WUHU216HW,2013-01-23 21:08:00,
2013-01-23 16:13:00,19.1,7.4,30.12,West,270,0.9,3.4,60,0.00,,,0.00,WUHU216HW,2013-01-23 21:13:00,
2013-01-23 16:18:00,19.3,7.2,30.11,SW,225,1.3,2.5,59,0.00,,,0.00,WUHU216HW,2013-01-23 21:18:00,
2013-01-23 16:23:00,19.1,7.0,30.12,WSW,248,1.1,2.7,59,0.00,,,0.00,WUHU216HW,2013-01-23 21:23:00,
2013-01-23 16:28:00,19.1,7.4,30.11,NNW,338,1.1,2.7,60,0.00,,,0.00,WUHU216HW,2013-01-23 21:28:00,
2013-01-23 16:33:00,19.1,7.4,30.11,SW,225,0.2,2.7,60,0.00,,,0.00,WUHU216HW,2013-01-23 21:33:00,
2013-01-23 16:38:00,19.3,7.6,30.11,West,270,1.8,2.5,60,0.00,,,0.00,WUHU216HW,2013-01-23 21:38:00,
2013-01-23 16:43:00,19.1,7.0,30.11,West,270,0.4,2.0,59,0.00,,,0.00,WUHU216HW,2013-01-23 21:43:00,
2013-01-23 16:48:00,19.1,7.0,30.11,SW,225,1.1,2.0,59,0.00,,,0.00,WUHU216HW,2013-01-23 21:48:00,
2013-01-23 16:53:00,19.1,7.0,30.11,SW,225,0.9,1.3,59,0.00,,,0.00,WUHU216HW,2013-01-23 21:53:00,
2013-01-23 16:58:00,18.9,6.8,30.11,West,270,0.0,1.3,59,0.00,,,0.00,WUHU216HW,2013-01-23 21:58:00,
2013-01-23 17:03:00,18.4,6.4,30.11,WNW,293,0.2,0.9,59,0.00,,,0.00,WUHU216HW,2013-01-23 22:03:00,
2013-01-23 17:08:00,18.2,6.2,30.11,SSE,158,1.1,1.3,59,0.00,,,0.00,WUHU216HW,2013-01-23 22:08:00,
2013-01-23 17:13:00,17.6,5.8,30.11,West,270,0.4,1.8,59,0.00,,,0.00,WUHU216HW,2013-01-23 22:13:00,
2013-01-23 17:18:00,17.5,5.6,30.11,NNW,338,0.2,1.8,59,0.00,,,0.00,WUHU216HW,2013-01-23 22:18:00,
2013-01-23 17:23:00,17.1,5.6,30.10,SW,225,0.4,1.1,60,0.00,,,0.00,WUHU216HW,2013-01-23 22:23:00,
2013-01-23 17:28:00,16.7,5.2,30.10,North,0,0.0,1.6,60,0.00,,,0.00,WUHU216HW,2013-01-23 22:28:00,
2013-01-23 17:33:00,16.7,5.2,30.10,NW,315,0.2,1.6,60,0.00,,,0.00,WUHU216HW,2013-01-23 22:33:00,
2013-01-23 17:38:00,16.6,5.4,30.10,WNW,293,0.0,0.7,61,0.00,,,0.00,WUHU216HW,2013-01-23 22:38:00,
2013-01-23 17:43:00,16.4,5.2,30.11,WNW,293,0.0,0.4,61,0.00,,,0.00,WUHU216HW,2013-01-23 22:43:00,
2013-01-23 17:48:00,16.4,5.2,30.11,WNW,293,0.0,0.2,61,0.00,,,0.00,WUHU216HW,2013-01-23 22:48:00,
2013-01-23 17:53:00,16.2,5.1,30.11,NW,315,0.0,0.2,61,0.00,,,0.00,WUHU216HW,2013-01-23 22:53:00,
2013-01-23 17:58:00,16.2,5.1,30.11,NW,315,0.0,0.2,61,0.00,,,0.00,WUHU216HW,2013-01-23 22:58:00,
2013-01-23 18:03:00,16.2,5.1,30.11,NW,315,0.0,0.0,61,0.00,,,0.00,WUHU216HW,2013-01-23 23:03:00,
2013-01-23 18:08:00,16.0,4.9,30.10,NW,315,0.0,0.0,61,0.00,,,0.00,WUHU216HW,2013-01-23 23:08:00,
2013-01-23 18:13:00,15.8,4.7,30.11,NW,315,0.0,0.0,61,0.00,,,0.00,WUHU216HW,2013-01-23 23:13:00,
2013-01-23 18:18:00,15.7,4.5,30.11,NW,315,0.0,0.0,61,0.00,,,0.00,WUHU216HW,2013-01-23 23:18:00,
2013-01-23 18:23:00,15.7,4.5,30.11,NW,315,0.0,0.0,61,0.00,,,0.00,WUHU216HW,2013-01-23 23:23:00,
2013-01-23 18:28:00,15.5,4.3,30.11,NW,315,0.0,0.0,61,0.00,,,0.00,WUHU216HW,2013-01-23 23:28:00,
2013-01-23 18:33:00,15.5,4.3,30.11,WNW,293,0.0,0.0,61,0.00,,,0.00,WUHU216HW,2013-01-23 23:33:00,
2013-01-23 18:38:00,15.5,4.3,30.11,NW,315,0.0,0.2,61,0.00,,,0.00,WUHU216HW,2013-01-23 23:38:00,
2013-01-23 18:43:00,15.5,4.3,30.11,WNW,293,0.0,0.2,61,0.00,,,0.00,WUHU216HW,2013-01-23 23:43:00,
2013-01-23 18:48:00,15.5,4.3,30.11,WNW,293,0.0,0.2,61,0.00,,,0.00,WUHU216HW,2013-01-23 23:48:00,
2013-01-23 18:53:00,15.5,4.3,30.11,West,270,0.0,0.0,61,0.00,,,0.00,WUHU216HW,2013-01-23 23:53:00,
2013-01-23 18:58:00,15.5,4.3,30.11,NW,315,0.0,0.2,61,0.00,,,0.00,WUHU216HW,2013-01-23 23:58:00,
2013-01-23 19:03:00,15.5,4.3,30.11,NW,315,0.0,0.4,61,0.00,,,0.00,WUHU216HW,2013-01-24 00:03:00,
2013-01-23 19:08:00,15.3,4.1,30.11,WNW,293,0.0,0.4,61,0.00,,,0.00,WUHU216HW,2013-01-24 00:08:00,
2013-01-23 19:13:00,15.5,4.7,30.11,WNW,293,0.0,0.2,62,0.00,,,0.00,WUHU216HW,2013-01-24 00:13:00,
2013-01-23 19:18:00,15.3,4.5,30.10,South,180,0.0,0.2,62,0.00,,,0.00,WUHU216HW,2013-01-24 00:18:00,
2013-01-23 19:23:00,15.3,4.5,30.10,South,180,0.0,0.4,62,0.00,,,0.00,WUHU216HW,2013-01-24 00:23:00,
2013-01-23 19:28:00,15.1,4.3,30.10,WNW,293,0.0,0.4,62,0.00,,,0.00,WUHU216HW,2013-01-24 00:28:00,
2013-01-23 19:33:00,15.1,4.3,30.10,NW,315,0.0,0.4,62,0.00,,,0.00,WUHU216HW,2013-01-24 00:33:00,
2013-01-23 19:38:00,15.1,4.3,30.10,NW,315,0.0,0.4,62,0.00,,,0.00,WUHU216HW,2013-01-24 00:38:00,
2013-01-23 19:43:00,15.3,4.5,30.10,NNW,338,0.0,0.0,62,0.00,,,0.00,WUHU216HW,2013-01-24 00:43:00,
2013-01-23 19:48:00,15.3,4.5,30.10,NNW,338,0.0,0.0,62,0.00,,,0.00,WUHU216HW,2013-01-24 00:48:00,
2013-01-23 19:53:00,15.3,4.5,30.10,NW,315,0.0,0.2,62,0.00,,,0.00,WUHU216HW,2013-01-24 00:53:00,
2013-01-23 19:58:00,15.1,4.3,30.10,NW,315,0.0,0.2,62,0.00,,,0.00,WUHU216HW,2013-01-24 00:58:00,
2013-01-23 20:03:00,15.1,4.7,30.09,NW,315,0.0,0.0,63,0.00,,,0.00,WUHU216HW,2013-01-24 01:03:00,
2013-01-23 20:08:00,15.3,4.9,30.10,WNW,293,0.0,0.2,63,0.00,,,0.00,WUHU216HW,2013-01-24 01:08:00,
2013-01-23 20:13:00,15.1,4.7,30.09,WNW,293,0.0,0.2,63,0.00,,,0.00,WUHU216HW,2013-01-24 01:13:00,
2013-01-23 20:18:00,15.1,4.7,30.09,WNW,293,0.0,0.0,63,0.00,,,0.00,WUHU216HW,2013-01-24 01:18:00,
2013-01-23 20:23:00,15.1,4.7,30.09,WNW,293,0.0,0.0,63,0.00,,,0.00,WUHU216HW,2013-01-24 01:23:00,
2013-01-23 20:28:00,14.9,4.5,30.09,WNW,293,0.0,0.0,63,0.00,,,0.00,WUHU216HW,2013-01-24 01:28:00,
2013-01-23 20:33:00,15.1,5.0,30.09,WNW,293,0.0,0.0,64,0.00,,,0.00,WUHU216HW,2013-01-24 01:33:00,
2013-01-23 20:38:00,15.1,5.0,30.09,WNW,293,0.0,0.0,64,0.00,,,0.00,WUHU216HW,2013-01-24 01:38:00,
2013-01-23 20:43:00,15.1,5.0,30.09,WNW,293,0.0,0.0,64,0.00,,,0.00,WUHU216HW,2013-01-24 01:43:00,
2013-01-23 20:48:00,15.1,5.0,30.09,WNW,293,0.0,0.0,64,0.00,,,0.00,WUHU216HW,2013-01-24 01:48:00,
2013-01-23 20:53:00,15.1,5.0,30.09,WNW,293,0.0,0.0,64,0.00,,,0.00,WUHU216HW,2013-01-24 01:53:00,
2013-01-23 20:58:00,15.1,5.0,30.09,WNW,293,0.0,0.0,64,0.00,,,0.00,WUHU216HW,2013-01-24 01:58:00,
2013-01-23 21:03:00,15.3,5.6,30.09,WNW,293,0.0,0.0,65,0.00,,,0.00,WUHU216HW,2013-01-24 02:03:00,
2013-01-23 21:08:00,15.1,5.4,30.09,WNW,293,0.0,0.0,65,0.00,,,0.00,WUHU216HW,2013-01-24 02:08:00,
2013-01-23 21:13:00,15.1,5.4,30.09,WNW,293,0.0,0.4,65,0.00,,,0.00,WUHU216HW,2013-01-24 02:13:00,
2013-01-23 21:18:00,14.9,5.2,30.09,WNW,293,0.0,0.4,65,0.00,,,0.00,WUHU216HW,2013-01-24 02:18:00,
2013-01-23 21:23:00,15.1,5.8,30.09,NNW,338,0.0,0.4,66,0.00,,,0.00,WUHU216HW,2013-01-24 02:23:00,
2013-01-23 21:28:00,14.9,5.6,30.10,NNW,338,0.0,0.4,66,0.00,,,0.00,WUHU216HW,2013-01-24 02:28:00,
2013-01-23 21:33:00,15.1,5.8,30.10,NNW,338,0.0,0.0,66,0.00,,,0.00,WUHU216HW,2013-01-24 02:33:00,
2013-01-23 21:38:00,15.1,6.0,30.11,NNW,338,0.0,0.0,67,0.00,,,0.00,WUHU216HW,2013-01-24 02:38:00,
2013-01-23 21:43:00,15.1,6.0,30.11,NNW,338,0.0,0.0,67,0.00,,,0.00,WUHU216HW,2013-01-24 02:43:00,
2013-01-23 21:48:00,15.1,6.0,30.10,NNW,338,0.0,0.0,67,0.00,,,0.00,WUHU216HW,2013-01-24 02:48:00,
2013-01-23 21:53:00,15.1,6.0,30.10,NNW,338,0.0,0.0,67,0.00,,,0.00,WUHU216HW,2013-01-24 02:53:00,
2013-01-23 21:58:00,15.1,6.4,30.10,NNW,338,0.0,0.0,68,0.00,,,0.00,WUHU216HW,2013-01-24 02:58:00,
2013-01-23 22:03:00,15.1,6.4,30.10,NNW,338,0.0,0.0,68,0.00,,,0.00,WUHU216HW,2013-01-24 03:03:00,
2013-01-23 22:08:00,15.3,6.2,30.10,NNW,338,0.0,0.0,67,0.00,,,0.00,WUHU216HW,2013-01-24 03:08:00,
2013-01-23 22:13:00,15.3,6.6,30.10,NNW,338,0.0,0.0,68,0.00,,,0.00,WUHU216HW,2013-01-24 03:13:00,
2013-01-23 22:18:00,15.3,6.6,30.10,NNW,338,0.0,0.0,68,0.00,,,0.00,WUHU216HW,2013-01-24 03:18:00,
2013-01-23 22:23:00,15.3,6.6,30.10,NNW,338,0.0,0.0,68,0.00,,,0.00,WUHU216HW,2013-01-24 03:23:00,
2013-01-23 22:28:00,15.3,6.2,30.10,NNW,338,0.0,0.0,67,0.00,,,0.00,WUHU216HW,2013-01-24 03:28:00,
2013-01-23 22:33:00,15.3,6.6,30.10,NNW,338,0.0,0.0,68,0.00,,,0.00,WUHU216HW,2013-01-24 03:33:00,
2013-01-23 22:38:00,15.3,6.6,30.10,West,270,0.0,0.2,68,0.00,,,0.00,WUHU216HW,2013-01-24 03:38:00,
2013-01-23 22:43:00,15.1,6.4,30.10,West,270,0.0,0.2,68,0.00,,,0.00,WUHU216HW,2013-01-24 03:43:00,
2013-01-23 22:48:00,15.1,6.4,30.10,West,270,0.0,0.0,68,0.00,,,0.00,WUHU216HW,2013-01-24 03:48:00,
2013-01-23 22:53:00,15.3,6.6,30.10,WNW,293,0.0,0.0,68,0.00,,,0.00,WUHU216HW,2013-01-24 03:53:00,
2013-01-23 22:58:00,15.3,6.6,30.10,West,270,0.0,0.0,68,0.00,,,0.00,WUHU216HW,2013-01-24 03:58:00,
2013-01-23 23:03:00,15.3,6.6,30.11,NW,315,0.0,0.4,68,0.00,,,0.00,WUHU216HW,2013-01-24 04:03:00,
2013-01-23 23:08:00,15.3,6.6,30.11,WNW,293,0.0,0.4,68,0.00,,,0.00,WUHU216HW,2013-01-24 04:08:00,
2013-01-23 23:13:00,15.3,6.6,30.11,WNW,293,0.0,0.4,68,0.00,,,0.00,WUHU216HW,2013-01-24 04:13:00,
2013-01-23 23:18:00,15.1,6.8,30.11,WNW,293,0.2,0.4,69,0.00,,,0.00,WUHU216HW,2013-01-24 04:18:00,
2013-01-23 23:23:00,15.1,6.8,30.11,WNW,293,0.0,0.2,69,0.00,,,0.00,WUHU216HW,2013-01-24 04:23:00,
2013-01-23 23:28:00,15.1,6.8,30.11,NW,315,0.0,0.2,69,0.00,,,0.00,WUHU216HW,2013-01-24 04:28:00,
2013-01-23 23:33:00,15.1,6.8,30.11,WNW,293,0.0,0.2,69,0.00,,,0.00,WUHU216HW,2013-01-24 04:33:00,
2013-01-23 23:38:00,14.9,6.6,30.11,WNW,293,0.0,0.2,69,0.00,,,0.00,WUHU216HW,2013-01-24 04:38:00,
2013-01-23 23:43:00,14.8,6.4,30.11,WNW,293,0.0,0.2,69,0.00,,,0.00,WUHU216HW,2013-01-24 04:43:00,
2013-01-23 23:48:00,14.8,6.4,30.11,WNW,293,0.0,0.2,69,0.00,,,0.00,WUHU216HW,2013-01-24 04:48:00,
2013-01-23 23:53:00,14.8,6.8,30.11,West,270,0.4,0.4,70,0.00,,,0.00,WUHU216HW,2013-01-24 04:53:00,
2013-01-23 23:58:00,14.8,6.8,30.12,WNW,293,0.2,0.4,70,0.00,,,0.00,WUHU216HW,2013-01-24 04:58:00,